Date String (YYYY-MM-DD hh:mm:ss) UTC,Instrument flags,absolute air pressure of the measurement (hPa),sample flow rate (lpm),inlet stack bypass flow (lpm),air temperature of the measurement (°C),ambient temperature measured by the external sensor (°C),aerosol sample conditioner tube jacket temperature (°C),OPC LED temperature (°C),internal box temperature (°C),relative humidity of the measurement (%),span deviation,mass concentration of particles derived from Lorenz-Mie calculation of OPC scattering (μg/m³),mass concentration of particles derived from Lorenz-Mie calculation of OPC scattering (μg/m³),mass concentration of particles derived from Lorenz-Mie calculation of OPC scattering (μg/m³)
DateTimeUTC,F1_M11,P_M11,Q1_M11,Q2_M11,T1_M11,T2_M11,T3_M11,T4_M11,T5_M11,U1_M11,ZSPAN_M11,X2_M11,X0_M11,X1_M11
2023-06-26 05:00:00,SystemResetWarning,0832.5,4.98,000.00,029.7,027.7,000.0,038.1,031.3,29.8,0000.0,0004.59,0012.12,0003.75
2023-06-26 05:01:00,SystemResetWarning,0832.6,5.01,000.00,029.7,025.6,000.0,038.1,031.3,29.8,0000.0,0004.61,0012.22,0003.74
2023-06-26 05:02:00,SystemResetWarning,0832.5,5.02,000.00,029.7,024.9,000.0,038.0,031.2,29.8,0000.0,0004.59,0012.20,0003.72
2023-06-26 05:03:00,SystemResetWarning,0832.5,5.00,000.00,029.6,025.1,000.0,038.0,030.8,30.1,0000.0,0004.52,0012.11,0003.71
2023-06-26 05:04:00,SystemResetWarning,0832.5,5.00,000.00,029.5,025.5,000.0,038.0,030.8,30.3,0000.0,0004.48,0012.86,0003.70
2023-06-26 05:05:00,SystemResetWarning,0832.5,5.01,000.00,029.5,026.0,000.0,038.0,030.8,30.2,0000.0,0004.48,0012.25,0003.71
2023-06-26 05:06:00,SystemResetWarning,0832.5,5.00,000.00,029.5,026.4,000.0,038.0,030.8,30.2,0000.0,0004.47,0012.45,0003.69
2023-06-26 05:07:00,SystemResetWarning,0832.5,5.01,000.00,029.5,026.7,000.0,038.0,030.8,30.1,0000.0,0004.41,0012.62,0003.68
2023-06-26 05:08:00,SystemResetWarning,0832.5,5.00,000.00,029.5,027.0,000.0,038.0,030.9,30.0,0000.0,0004.43,0011.38,0003.68
2023-06-26 05:09:00,SystemResetWarning,0832.5,5.00,000.00,029.5,027.3,000.0,038.0,030.9,30.0,0000.0,0004.46,0010.36,0003.69
2023-06-26 05:10:00,SystemResetWarning,0832.5,5.00,000.00,029.5,027.5,000.0,038.1,031.0,30.0,0000.0,0004.53,0010.47,0003.70
2023-06-26 05:11:00,SystemResetWarning,0832.5,5.00,000.00,029.5,027.7,000.0,038.1,031.0,29.9,0000.0,0004.54,0010.37,0003.70
2023-06-26 05:12:00,SystemResetWarning,0832.5,4.98,000.00,029.5,027.9,000.0,038.1,031.1,29.9,0000.0,0004.51,0010.15,0003.70
2023-06-26 05:13:00,SystemResetWarning,0832.5,5.00,000.00,029.6,028.0,000.0,038.1,031.1,29.9,0000.0,0004.53,0010.24,0003.71
2023-06-26 05:14:00,SystemResetWarning,0832.5,5.02,000.00,029.6,028.1,000.0,038.1,031.2,29.8,0000.0,0004.56,0010.69,0003.72
2023-06-26 05:15:00,SystemResetWarning,0832.5,5.00,000.00,029.6,028.2,000.0,038.1,031.2,29.7,0000.0,0004.59,0009.68,0003.72
2023-06-26 05:16:00,SystemResetWarning,0832.4,4.99,000.00,029.7,028.2,000.0,038.1,031.2,29.6,0000.0,0004.60,0009.86,0003.72
2023-06-26 05:17:00,SystemResetWarning,0832.5,5.00,000.00,029.7,028.3,000.0,038.2,031.3,29.6,0000.0,0004.62,0009.86,0003.73
2023-06-26 05:18:00,SystemResetWarning,0832.5,5.00,000.00,029.7,028.4,000.0,038.2,031.3,29.5,0000.0,0004.65,0010.41,0003.74
2023-06-26 05:19:00,SystemResetWarning,0832.5,5.00,000.00,029.8,028.4,000.0,038.2,031.3,29.5,0000.0,0004.62,0010.61,0003.74
2023-06-26 05:20:00,SystemResetWarning,0832.5,5.00,000.00,029.8,027.2,000.0,038.2,031.4,29.5,0000.0,0004.65,0010.65,0003.74
2023-06-26 05:21:00,SystemResetWarning,0832.5,5.00,000.00,029.8,025.3,000.0,038.1,031.3,29.5,0000.0,0004.64,0010.71,0003.73
2023-06-26 05:22:00,SystemResetWarning,0832.4,5.00,000.00,029.7,024.9,000.0,038.1,031.1,29.5,0000.0,0004.65,0011.19,0003.74
2023-06-26 05:23:00,SystemResetWarning,0832.4,5.01,000.00,029.6,025.2,000.0,038.1,030.8,29.7,0000.0,0004.67,0011.35,0003.74
2023-06-26 05:24:00,SystemResetWarning,0832.4,5.02,000.00,029.5,025.6,000.0,038.1,030.8,29.9,0000.0,0004.66,0011.74,0003.73
2023-06-26 05:25:00,SystemResetWarning,0832.4,5.00,000.00,029.5,026.1,000.0,038.1,030.8,29.9,0000.0,0004.64,0011.46,0003.72
2023-06-26 05:26:00,SystemResetWarning,0832.4,5.00,000.00,029.5,026.5,000.0,038.1,030.8,29.8,0000.0,0004.60,0011.45,0003.72
2023-06-26 05:27:00,SystemResetWarning,0832.4,5.00,000.00,029.5,026.8,000.0,038.1,030.9,29.8,0000.0,0004.60,0012.28,0003.72
2023-06-26 05:28:00,SystemResetWarning,0832.5,4.98,000.00,029.5,027.1,000.0,038.1,030.9,29.8,0000.0,0004.60,0012.76,0003.72
2023-06-26 05:29:00,SystemResetWarning,0832.4,4.99,000.00,029.5,027.4,000.0,038.1,031.0,29.7,0000.0,0004.60,0012.45,0003.72
2023-06-26 05:30:00,SystemResetWarning,0832.5,5.01,000.00,029.5,027.6,000.0,038.1,031.0,29.7,0000.0,0004.64,0012.49,0003.71
2023-06-26 05:31:00,SystemResetWarning,0832.4,5.01,000.00,029.6,027.8,000.0,038.1,031.1,29.7,0000.0,0004.63,0012.91,0003.72
2023-06-26 05:32:00,SystemResetWarning,0832.4,5.00,000.00,029.6,027.9,000.0,038.1,031.2,29.6,0000.0,0004.60,0013.09,0003.71
2023-06-26 05:33:00,SystemResetWarning,0832.4,4.99,000.00,029.6,028.1,000.0,038.1,031.2,29.6,0000.0,0004.58,0013.34,0003.71
2023-06-26 05:34:00,SystemResetWarning,0832.4,4.99,000.00,029.7,028.2,000.0,038.1,031.2,29.6,0000.0,0004.57,0014.33,0003.71
2023-06-26 05:35:00,SystemResetWarning,0832.4,5.00,000.00,029.7,028.3,000.0,038.2,031.3,29.6,0000.0,0004.58,0014.49,0003.71
2023-06-26 05:36:00,SystemResetWarning,0832.5,5.01,000.00,029.7,028.3,000.0,038.2,031.3,29.5,0000.0,0004.61,0014.77,0003.71
2023-06-26 05:37:00,SystemResetWarning,0832.5,5.00,000.00,029.8,028.4,000.0,038.2,031.3,29.6,0000.0,0004.62,0015.21,0003.70
2023-06-26 05:38:00,SystemResetWarning,0832.5,5.01,000.00,029.8,028.5,000.0,038.2,031.4,29.6,0000.0,0004.62,0015.23,0003.70
2023-06-26 05:39:00,SystemResetWarning,0832.5,5.00,000.00,029.8,028.5,000.0,038.3,031.4,29.4,0000.0,0004.65,0015.08,0003.70
2023-06-26 05:40:00,SystemResetWarning,0832.5,4.99,000.00,029.9,028.6,000.0,038.3,031.5,29.3,0000.0,0004.63,0014.96,0003.70
2023-06-26 05:41:00,SystemResetWarning,0832.5,4.99,000.00,029.9,028.0,000.0,038.3,031.5,29.3,0000.0,0004.62,0015.02,0003.70
2023-06-26 05:42:00,SystemResetWarning,0832.5,5.01,000.00,029.9,025.8,000.0,038.2,031.5,29.3,0000.0,0004.61,0014.47,0003.70
2023-06-26 05:43:00,SystemResetWarning,0832.5,5.00,000.00,029.8,025.0,000.0,038.2,031.4,29.3,0000.0,0004.66,0014.97,0003.71
2023-06-26 05:44:00,SystemResetWarning,0832.5,5.02,000.00,029.7,025.1,000.0,038.2,031.0,29.5,0000.0,0004.70,0014.55,0003.72
2023-06-26 05:45:00,SystemResetWarning,0832.5,5.00,000.00,029.6,025.6,000.0,038.2,030.9,29.7,0000.0,0004.74,0014.34,0003.73
2023-06-26 05:46:00,SystemResetWarning,0832.5,5.00,000.00,029.6,026.0,000.0,038.2,030.9,29.8,0000.0,0004.72,0014.31,0003.74
2023-06-26 05:47:00,SystemResetWarning,0832.5,5.00,000.00,029.6,026.5,000.0,038.2,031.0,29.8,0000.0,0004.73,0014.03,0003.73
2023-06-26 05:48:00,SystemResetWarning,0832.5,5.00,000.00,029.6,026.8,000.0,038.2,031.0,29.8,0000.0,0004.73,0013.72,0003.74
2023-06-26 05:49:00,SystemResetWarning,0832.5,4.99,000.00,029.6,027.1,000.0,038.2,031.1,29.8,0000.0,0004.74,0012.77,0003.75
2023-06-26 05:50:00,SystemResetWarning,0832.4,4.99,000.00,029.6,027.4,000.0,038.2,031.1,29.8,0000.0,0004.70,0012.47,0003.76
2023-06-26 05:51:00,SystemResetWarning,0832.4,5.00,000.00,029.6,027.6,000.0,038.2,031.1,29.9,0000.0,0004.67,0012.65,0003.76
2023-06-26 05:52:00,SystemResetWarning,0832.4,5.01,000.00,029.7,027.8,000.0,038.2,031.2,29.9,0000.0,0004.67,0012.63,0003.77
2023-06-26 05:53:00,SystemResetWarning,0832.4,5.01,000.00,029.7,027.9,000.0,038.2,031.2,29.9,0000.0,0004.68,0012.61,0003.77
2023-06-26 05:54:00,SystemResetWarning,0832.5,4.99,000.00,029.7,028.1,000.0,038.2,031.3,29.8,0000.0,0004.64,0012.20,0003.78
2023-06-26 05:55:00,SystemResetWarning,0832.4,4.99,000.00,029.7,028.2,000.0,038.2,031.3,29.8,0000.0,0004.62,0012.34,0003.78
2023-06-26 05:56:00,SystemResetWarning,0832.4,5.01,000.00,029.8,028.2,000.0,038.2,031.3,29.7,0000.0,0004.60,0012.90,0003.78
2023-06-26 05:57:00,SystemResetWarning,0832.5,5.01,000.00,029.8,028.3,000.0,038.3,031.3,29.6,0000.0,0004.64,0012.09,0003.78
2023-06-26 05:58:00,SystemResetWarning,0832.4,5.01,000.00,029.8,028.4,000.0,038.3,031.4,29.5,0000.0,0004.64,0012.18,0003.79
2023-06-26 05:59:00,SystemResetWarning,0832.5,5.01,000.00,029.8,028.4,000.0,038.3,031.4,29.4,0000.0,0004.60,0013.00,0003.81
